QPF
0.00 0.00 0.00 0.00 0.00 0.00 0.00 0.00 0.00 0.00 0.05 0.02 0.00 0.00 0.00 0.00 0.00 0.00 0.00 0.00 0.00 0.00
0.00 0.00 0.00 0.00 0.00 0.00 0.00 0.00 0.00 0.01 0.01 0.01 0.01 0.00 0.00 0.00 0.00 0.00 0.00 0.00 0.00 0.00
0.00 0.00 0.00 0.00 0.00 0.00 0.00 0.00 0.00 0.03 0.09 0.08 0.01 0.05 0.02 0.00 0.00 0.00 0.00 0.00 0.00 0.00
0.00 0.00 0.00 0.00 0.00 0.00 0.00 0.00 0.00 0.00 0.01 0.11 0.03 0.10 0.05 0.00 0.00 0.00 0.01 0.00 0.00 0.00
0.12 0.02 0.00 0.00 0.00 0.00 0.00 0.00 0.00 0.00 0.00 0.00 0.01 0.08 0.04 0.01 0.00 0.02 0.07 0.00 0.00 0.00
0.22 0.13 0.04 0.00 0.00 0.00 0.00 0.00 0.00 0.00 0.00 0.00 0.00 0.02 0.04 0.06 0.05 0.00 0.00 0.00 0.00 0.00
0.17 0.12 0.10 0.08 0.04 0.01 0.00 0.00 0.00 0.00 0.00 0.00 0.00 0.00 0.01 0.07 0.04 0.05 0.01 0.00 0.00 0.00
0.13 0.17 0.11 0.12 0.07 0.08 0.01 0.00 0.00 0.00 0.00 0.00 0.00 0.00 0.00 0.00 0.01 0.03 0.01 0.00 0.00 0.00
0.22 0.24 0.17 0.20 0.14 0.08 0.07 0.05 0.00 0.00 0.00 0.00 0.00 0.00 0.00 0.00 0.00 0.01 0.01 0.00 0.00 0.00
0.23 0.31 0.45 0.46 0.35 0.15 0.16 0.20 0.22 0.08 0.02 0.00 0.00 0.01 0.03 0.01 0.00 0.00 0.00 0.00 0.00 0.00
0.09 0.18 0.24 0.27 0.40 0.56 0.57 0.45 0.37 0.45 0.26 0.15 0.08 0.04 0.05 0.08 0.01 0.00 0.00 0.00 0.00 0.00
0.00 0.01 0.04 0.06 0.10 0.36 0.59 0.63 0.50 0.42 0.50 0.35 0.27 0.22 0.19 0.20 0.09 0.02 0.00 0.00 0.00 0.00
0.00 0.00 0.00 0.00 0.02 0.16 0.17 0.13 0.12 0.17 0.21 0.27 0.35 0.30 0.21 0.21 0.17 0.03 0.00 0.00 0.00 0.00
0.00 0.00 0.00 0.00 0.00 0.00 0.00 0.00 0.00 0.00 0.01 0.05 0.16 0.25 0.22 0.23 0.19 0.08 0.02 0.00 0.00 0.00
MSLP
1013.22 1013.73 1014.13 1014.38 1014.44 1014.55 1014.74 1014.88 1015.08 1015.36 1015.34 1015.50 1015.50 1015.70 1016.01 1016.52 1016.81 1017.06 1017.17 1017.25 1017.63 1017.85
1012.47 1012.81 1013.22 1013.71 1013.98 1014.05 1014.16 1014.42 1014.59 1014.76 1015.08 1015.19 1015.28 1015.40 1015.79 1016.07 1016.24 1016.57 1016.76 1016.84 1017.00 1017.33
1011.21 1011.99 1012.38 1012.83 1013.42 1013.56 1013.57 1013.80 1014.08 1014.37 1014.71 1014.85 1014.94 1015.15 1015.53 1015.78 1015.97 1016.15 1016.31 1016.56 1016.64 1016.64
1010.98 1011.22 1011.81 1012.04 1012.37 1012.81 1013.06 1013.16 1013.47 1013.76 1014.10 1014.50 1014.74 1014.80 1015.18 1015.42 1015.68 1015.98 1015.97 1016.08 1016.30 1016.36
1011.56 1011.30 1011.37 1011.63 1011.63 1012.02 1012.33 1012.56 1012.74 1013.06 1013.44 1013.72 1013.99 1014.37 1014.66 1015.01 1015.14 1015.49 1015.78 1015.78 1015.99 1016.08
1011.31 1011.01 1010.87 1010.94 1010.95 1011.29 1011.64 1011.87 1012.08 1012.41 1012.70 1013.04 1013.29 1013.63 1014.03 1014.28 1014.59 1014.76 1015.03 1015.33 1015.51 1015.51
1010.41 1010.10 1009.98 1009.84 1010.03 1010.32 1010.76 1011.13 1011.23 1011.39 1011.70 1012.08 1012.40 1012.77 1013.10 1013.49 1013.78 1014.09 1014.28 1014.49 1014.72 1014.84
1009.73 1009.27 1008.95 1009.39 1009.41 1009.38 1009.81 1009.82 1009.86 1010.41 1010.73 1011.07 1011.45 1011.78 1012.17 1012.55 1012.86 1013.24 1013.59 1013.81 1013.94 1014.10
1008.37 1009.06 1008.67 1008.25 1008.52 1008.62 1008.34 1008.66 1008.92 1009.25 1009.65 1010.16 1010.39 1010.64 1011.15 1011.69 1012.19 1012.57 1012.91 1013.07 1013.24 1013.41
1009.37 1009.20 1009.06 1008.65 1007.80 1007.78 1007.37 1007.59 1007.81 1008.48 1008.90 1009.21 1009.42 1009.86 1010.59 1011.19 1011.62 1011.96 1012.13 1012.29 1012.57 1012.87
1009.56 1009.34 1008.96 1008.70 1008.81 1008.40 1007.07 1007.71 1008.12 1007.69 1007.94 1008.75 1008.95 1009.29 1009.71 1010.35 1010.87 1011.25 1011.47 1011.57 1011.84 1012.11
1009.00 1008.78 1008.52 1008.54 1008.62 1008.51 1008.38 1007.46 1007.27 1007.58 1007.22 1008.74 1009.89 1010.19 1010.43 1011.06 1010.79 1010.50 1010.49 1010.83 1011.09 1011.33
1008.49 1008.43 1008.24 1008.10 1008.35 1008.29 1008.05 1008.11 1007.54 1007.21 1005.51 1007.90 1009.82 1009.44 1009.46 1009.56 1010.51 1010.54 1010.06 1009.94 1010.14 1010.38
1008.32 1008.01 1007.76 1007.77 1008.00 1008.14 1008.25 1008.17 1007.99 1007.63 1007.00 1006.67 1006.86 1006.78 1006.71 1007.90 1009.15 1009.59 1009.61 1009.33 1009.31 1009.26
Thickness
5786 5779 5776 5776 5776 5777 5776 5776 5775 5770 5769 5769 5770 5769 5770 5769 5768 5767 5767 5768 5767 5765
5790 5787 5782 5777 5777 5778 5778 5777 5776 5775 5771 5769 5769 5768 5767 5767 5767 5767 5768 5770 5771 5769
5799 5791 5788 5784 5777 5777 5780 5778 5776 5773 5771 5770 5769 5768 5765 5765 5766 5766 5767 5768 5768 5770
5793 5793 5788 5787 5784 5780 5780 5781 5778 5773 5771 5767 5766 5767 5763 5763 5764 5763 5764 5766 5767 5767
5786 5786 5784 5783 5786 5783 5780 5781 5781 5777 5772 5770 5769 5767 5764 5762 5764 5762 5760 5763 5763 5764
5783 5784 5785 5785 5786 5783 5780 5779 5779 5778 5774 5771 5770 5768 5765 5764 5762 5763 5761 5760 5761 5762
5784 5787 5788 5789 5788 5787 5782 5780 5779 5779 5777 5774 5773 5771 5767 5765 5763 5761 5762 5762 5762 5763
5783 5786 5790 5788 5788 5788 5785 5785 5785 5780 5779 5777 5774 5772 5770 5767 5765 5762 5760 5760 5762 5763
5779 5780 5784 5788 5788 5789 5789 5788 5785 5784 5781 5777 5777 5775 5771 5768 5764 5763 5761 5760 5760 5762
5765 5766 5768 5776 5782 5783 5786 5787 5785 5780 5779 5777 5777 5773 5767 5763 5761 5759 5761 5761 5760 5759
5744 5750 5756 5756 5757 5758 5759 5763 5766 5775 5774 5771 5771 5769 5766 5761 5759 5756 5756 5758 5758 5759
5731 5737 5743 5745 5744 5748 5746 5740 5754 5744 5760 5757 5749 5750 5754 5748 5752 5754 5756 5755 5756 5757
5718 5721 5725 5731 5731 5734 5738 5740 5742 5728 5741 5734 5739 5747 5752 5754 5748 5748 5751 5755 5755 5755
5700 5707 5713 5717 5719 5720 5722 5728 5730 5733 5741 5749 5757 5762 5764 5754 5749 5750 5747 5748 5751 5757